Time,TemperatureF,DewpointF,PressureIn,WindDirection,WindDirectionDegrees,WindSpeedMPH,WindSpeedGustMPH,Humidity,HourlyPrecipIn,Conditions,Clouds,dailyrainin,SoftwareType,DateUTC
2013-01-18 00:00:00,39.0,-6.0,-100.00,WNW,297,17.0,27.0,14,-99.99,,,-99.99,,2013-01-18 08:00:00,
2013-01-18 01:00:00,38.0,-7.0,-100.00,West,278,16.0,28.0,14,-99.99,,,-99.99,,2013-01-18 09:00:00,
2013-01-18 01:52:00,38.0,-7.0,-100.00,West,278,16.0,28.0,14,-99.99,,,-99.99,,2013-01-18 09:52:00,
2013-01-18 02:00:00,39.0,-5.0,-100.00,NW,312,16.0,29.0,15,-99.99,,,-99.99,,2013-01-18 10:00:00,
2013-01-18 03:00:00,38.0,-5.0,-100.00,SSW,205,20.0,37.0,15,-99.99,,,-99.99,,2013-01-18 11:00:00,
2013-01-18 03:53:00,38.0,-5.0,-100.00,SSW,205,20.0,37.0,15,-99.99,,,-99.99,,2013-01-18 11:53:00,
2013-01-18 05:00:00,38.0,-4.0,-100.00,SW,235,22.0,37.0,16,-99.99,,,-99.99,,2013-01-18 13:00:00,
2013-01-18 06:00:00,37.0,-3.0,-100.00,WSW,255,22.0,35.0,18,-99.99,,,-99.99,,2013-01-18 14:00:00,
2013-01-18 07:00:00,37.0,-5.0,-100.00,West,271,23.0,40.0,16,-99.99,,,-99.99,,2013-01-18 15:00:00,
2013-01-18 07:53:00,37.0,-5.0,-100.00,West,271,23.0,40.0,16,-99.99,,,-99.99,,2013-01-18 15:53:00,
2013-01-18 08:00:00,36.0,-3.0,-100.00,West,271,24.0,37.0,18,-99.99,,,-99.99,,2013-01-18 16:00:00,
2013-01-18 09:00:00,37.0,-1.0,-100.00,NNW,343,27.0,40.0,19,-99.99,,,-99.99,,2013-01-18 17:00:00,
2013-01-18 09:53:00,37.0,-1.0,-100.00,NNW,343,27.0,40.0,19,-99.99,,,-99.99,,2013-01-18 17:53:00,
2013-01-18 10:00:00,38.0,-7.0,-100.00,WNW,284,28.0,41.0,14,-99.99,,,-99.99,,2013-01-18 18:00:00,
2013-01-18 11:00:00,38.0,-4.0,-100.00,West,260,27.0,46.0,16,-99.99,,,-99.99,,2013-01-18 19:00:00,
2013-01-18 12:00:00,39.0,-2.0,-100.00,WNW,294,27.0,44.0,17,-99.99,,,-99.99,,2013-01-18 20:00:00,
2013-01-18 13:00:00,39.0,2.0,-100.00,NW,308,27.0,40.0,21,-99.99,,,-99.99,,2013-01-18 21:00:00,
2013-01-18 14:00:00,40.0,1.0,-100.00,NNW,339,27.0,44.0,19,-99.99,,,-99.99,,2013-01-18 22:00:00,
2013-01-18 14:53:00,40.0,1.0,-100.00,NNW,339,27.0,44.0,19,-99.99,,,-99.99,,2013-01-18 22:53:00,
2013-01-18 15:00:00,38.0,3.0,-100.00,NW,307,23.0,35.0,22,-99.99,,,-99.99,,2013-01-18 23:00:00,
2013-01-18 16:00:00,38.0,-2.0,-100.00,West,278,22.0,36.0,18,-99.99,,,-99.99,,2013-01-19 00:00:00,
2013-01-18 17:00:00,37.0,-4.0,-100.00,West,279,21.0,32.0,17,-99.99,,,-99.99,,2013-01-19 01:00:00,
2013-01-18 18:00:00,37.0,-1.0,-100.00,West,271,20.0,32.0,19,-99.99,,,-99.99,,2013-01-19 02:00:00,
2013-01-18 19:00:00,37.0,-3.0,-100.00,West,280,20.0,27.0,18,-99.99,,,-99.99,,2013-01-19 03:00:00,
2013-01-18 20:00:00,38.0,-2.0,-100.00,SW,228,20.0,30.0,18,-99.99,,,-99.99,,2013-01-19 04:00:00,
2013-01-18 21:00:00,39.0,0.0,-100.00,West,267,18.0,27.0,19,-99.99,,,-99.99,,2013-01-19 05:00:00,
2013-01-18 22:00:00,39.0,1.0,-100.00,WSW,258,20.0,27.0,20,-99.99,,,-99.99,,2013-01-19 06:00:00,
2013-01-18 23:00:00,39.0,1.0,-100.00,West,277,20.0,30.0,20,-99.99,,,-99.99,,2013-01-19 07:00:00,